Weather in Karagay

Russia / Perm Krai     58°15′58″N   54°55′42″E
temp.,
°C
wind,
m/s
gust,
m/s
humid.,
%
clouds,
%
prec.,
mm/h
press.,
hPa
HPBL,
m
28 february, sun
sun2823:00−16e41192100 0.2 1009465
02:00−18ene489599 0.1 1009342
05:00−20ne389699 0.1 1009257
08:00−19ne4895100 0.1 1009353
11:00−17ene489199 0.1 1010443
14:00−15ne4788100 0.0 1010580
17:00−14ne4788100 0.1 1011605
20:00−17ne259699 0.0 1013122
1 march, mon
mon123:00−20ne339869 0.1 101569
02:00−22ne23980 0.0 101646
05:00−22nne239827 0.0 101855
08:00−23nne229945 0.0 101922
11:00−18ne239228 0.0 1019191
14:00−13wnw018487 0.0 1018390
17:00−13wsw118593 0.0 1017350
20:00−18ssw239561 0.0 101621
2 march, tue
tue223:00−19ssw359853 0.0 1014105
02:00−18ssw4109664 0.0 1012260
05:00−17s5129282 0.0 1009349
08:00−17s61295100 0.1 1006382
11:00−16s61294100 0.8 1004450
14:00−13s61193100 0.8 1002533
17:00−12s51093100 1.4 1001577
20:00−11s3995100 0.7 1000513
3 march, wed
wed323:00−11s3896100 1.1 1000350
02:00−11s2696100 0.6 998267
05:00−12sse2396100 0.9 99880
08:00−12s1296100 0.3 99821
11:00−9sw1292100 0.3 998234
14:00−6w2389100 0.1 998408
17:00−4nw2495100 0.6 999391
20:00−8nnw3109493 0.4 1000486
4 march, thu
thu423:00−8nw4119295 0.6 1002503
02:00−14wnw349821 0.0 100283
05:00−14wnw349755 0.0 100367
08:00−15w369770 0.0 1003135
11:00−11w369375 0.0 1003283
14:00−7wsw368893 0.0 1002608
17:00−7ssw588796 0.1 1001754
20:00−7ssw61394100 0.3 998749